METEOSAT-10 (MSG-3)

Last updated on Nov. 21, 2019, 4:15 a.m. UTC

1 38552U 12035B   19324.15684951  .00000060  00000-0  00000+0 0  9997
2 38552   1.0577 350.6362 0002177 214.8788 279.3875  1.00263439 27148
UTC
Height (km)
Latitude
Longitude
Inclination
Orbital Period
UTC large
Height (km)
Speed (km/s)
/
Latitude / Longitude
Inclination (degrees)
Orbital Period (minutes)
Azimuth
Elevation
Range (km)
Doppler Factor
iOS Compass Heading
iOS Angle

Next 30 passes for location: Hong Kong

Rise time Rise Azimuth (degrees) Set time Set Azimuth (degrees) Duration Max altitude (degrees)

No matching passes for this satellites